[[{"header":{"parameterUnit":"m.s-1","parameterCategory":1,"la1":30.2991,"la2":30.254,"lo1":-89.0895,"lo2":-89.0444,"dy":0.0017,"dx":0.0017,"nx":28,"ny":28,"refTime":"2024-07-08T09:00:00:Z","depth":0,"parameterNumber":2,"parameterNumberName":"U-component_of_WINDS"},"data":[0,0,0,0,0,0,0,0,0,0,0,0,0,0,0,0,0,0,0,0,0,0,0,0,0,0,0,0,0,0,0,0,0,0,0,0,0,0,0,0,0,0,0,0,0,0,0,0,0,0,0,0,0,0,0,0,0,0,2.8319,2.8319,0,2.8404,2.8405,2.8406,2.8386,2.8385,2.8383,2.8382,2.8468,2.8472,2.8476,0,0,0,0,0,0,0,0,0,0,0,0,0,2.8135,2.8139,2.8318,2.832,2.8321,2.8404,2.8405,2.8406,2.8387,2.8385,2.8383,2.8381,2.8467,2.8471,2.8476,0,0,0,0,0,0,0,0,0,0,0,0,0,2.8217,2.814,2.8318,2.8321,2.8322,2.8404,2.8405,2.8407,2.8387,2.8385,2.8382,2.838,2.8465,2.8471,2.8477,2.8561,0,0,2.8494,2.8497,0,0,0,0,0,0,0,0,2.8212,2.8224,2.8319,2.8321,2.8322,2.8382,2.8372,2.8458,2.8388,2.8362,2.8382,2.8379,2.8441,2.8449,2.847,2.8565,2.8569,2.8495,2.8498,2.8501,2.8502,0,0,0,0,0,0,0,2.8207,2.822,2.8352,2.8321,2.8323,2.8317,2.8326,2.8388,2.8414,2.8364,2.8363,2.8374,2.8442,2.8465,2.8472,2.857,2.8495,2.85,2.8503,2.8505,2.8735,2.8737,0,0,0,0,0,0,2.82,2.8215,2.835,2.8355,2.826,2.8322,2.8332,2.8365,2.8414,2.8419,2.8376,2.8372,2.8456,2.8466,2.8475,2.8575,2.8501,2.8506,2.8509,2.8732,2.8735,2.8738,0,0,0,0,0,0,2.8196,2.8212,2.8346,2.8285,2.8301,2.8328,2.8365,2.8368,2.8391,2.8422,2.8427,2.8395,2.8455,2.8467,2.8539,2.8577,2.8509,2.8514,2.8729,2.8733,2.8737,2.8775,0,0,0,0,0,0,2.8191,2.8211,2.8244,2.8286,2.8305,2.8409,2.8368,2.8372,2.8401,2.8398,2.8441,2.8446,2.8454,2.8531,2.8545,2.8584,2.8518,2.8726,2.8731,2.8736,2.8771,2.878,2.8788,0,0,0,0,0,2.8185,2.8252,2.8246,2.8262,2.8347,2.8412,2.8422,2.843,2.8405,2.8437,2.8457,2.8445,2.8571,2.8538,2.8554,2.8595,2.8723,2.8729,2.8735,2.8767,2.8778,2.8788,0,0,0,0,0,0,2.8214,2.8257,2.8251,2.8334,2.8369,2.8408,2.845,2.8443,2.8486,2.8481,2.8488,2.8498,2.8571,2.8591,2.8553,2.8678,2.8643,2.8653,2.8662,2.8673,2.8682,2.8675,2.8523,0,0,0,0,0,2.823,2.828,2.8315,2.8385,2.8403,2.8423,2.8452,2.8455,2.8491,2.8506,2.8531,2.8567,2.8614,2.8645,2.8691,2.8774,2.8782,2.881,2.8819,2.8826,2.8833,2.8876,2.8888,2.8758,2.8758,2.8758,0,0,2.8264,2.8294,2.8325,2.8391,2.8419,2.8469,2.8436,2.8491,2.8528,2.8514,2.8583,2.8603,2.8643,2.872,2.8755,2.8739,2.8871,2.8834,2.8839,2.8843,2.8884,2.8896,2.8907,2.8762,2.8761,2.8761,0,0,2.835,2.8379,2.8439,2.8467,2.8509,2.8522,2.8536,2.8576,2.8589,2.8658,2.8648,2.8692,2.8775,2.8802,2.8828,2.8923,2.8913,2.8938,2.8983,2.9024,2.9035,2.9044,2.9075,2.9087,2.8946,2.8946,2.8946,0,2.8386,2.8462,2.847,2.8526,2.8554,2.8545,2.8604,2.8631,2.8686,2.8705,2.8686,2.8788,2.8815,2.8897,2.892,2.8942,2.8956,2.8932,2.9033,2.9042,2.905,2.908,2.9093,2.8948,2.8948,2.8948,2.8948,0,2.8503,2.8556,2.8599,2.8652,2.8685,2.8743,2.8758,2.8791,2.8791,2.8806,2.8875,2.8906,2.8957,2.8977,2.8978,2.9059,2.9047,2.9031,2.8996,2.9065,2.9093,2.9105,2.8952,2.8951,2.895,2.895,0,0,2.861,2.8665,2.8681,2.8703,2.8749,2.8789,2.8845,2.8895,2.8922,2.896,2.9005,2.9075,2.9059,2.9088,2.9092,2.9129,2.9199,2.9107,2.9108,2.9121,2.9287,2.9297,2.9311,2.9193,2.9195,2.9197,2.9283,0,2.8698,2.8797,2.8805,2.8894,2.8941,2.8932,2.8981,2.9013,2.9028,2.907,2.9086,2.9134,2.9111,2.9128,2.9164,2.9183,2.9232,2.9177,2.9234,2.9236,2.9221,2.9326,2.9338,2.9417,2.9294,2.9296,2.9298,0,2.8814,2.8855,2.8948,2.8984,2.9005,2.9048,2.9093,2.9134,2.9169,2.9178,2.9209,2.9207,2.9263,2.9228,2.9304,2.9266,2.929,2.9303,2.9306,2.931,2.9269,2.933,2.9443,2.9454,2.9316,2.9314,2.9313,0,2.8879,2.8957,2.9022,2.9042,2.9088,2.9118,2.9138,2.9172,2.92,2.9239,2.9258,2.9303,2.9328,2.9362,2.9373,2.9346,2.9448,2.9414,2.9454,2.9454,2.9474,2.9473,2.959,2.9494,2.9494,2.9494,2.9494,0,2.8975,2.9031,2.9051,2.9091,2.9154,2.9163,2.9224,2.9242,2.9272,2.9314,2.931,2.935,2.9362,2.9404,2.9412,2.9472,2.9484,2.9491,2.9492,2.949,2.9489,2.9504,2.9498,2.9497,2.9496,2.9496,2.9495,0,2.9057,2.9073,2.9143,2.918,2.919,2.9234,2.9265,2.9303,2.9317,2.937,2.9383,2.9406,2.9454,2.9468,2.9527,2.9532,2.9602,2.96,2.959,2.9589,2.9628,2.9623,2.9758,2.9775,2.967,2.9671,2.9672,0,2.9116,2.9159,2.92,2.9228,2.9249,2.9295,2.9324,2.9334,2.9364,2.9407,2.9439,2.9487,2.9525,2.9603,2.9624,2.9668,2.9665,2.9709,2.9671,2.9667,2.9662,2.9658,2.9662,2.9715,2.9716,2.9717,2.9718,0,2.9218,2.9223,2.9265,2.931,2.9344,2.938,2.9414,2.9437,2.9452,2.9485,2.9535,2.9564,2.9623,2.967,2.9715,2.9735,2.9728,2.973,2.9741,2.9738,2.9729,2.9732,2.9606,2.9726,2.9725,2.9725,2.9724,2.9724,2.9289,2.9325,2.936,2.9406,2.9433,2.9464,2.95,2.9519,2.956,2.9609,2.9613,2.9665,2.9698,2.9758,2.978,2.982,2.9807,2.9824,2.9828,2.9832,2.9833,2.9725,2.9829,2.9829,2.9829,2.9828,2.9828,0,2.9388,2.9409,2.9452,2.9499,2.9535,2.9527,2.9564,2.9594,2.964,2.9672,2.971,2.9765,2.981,2.9835,2.9879,2.9907,2.9905,2.9918,2.9915,2.9919,2.9844,2.9828,2.9919,2.9919,2.9919,2.9919,2.9919,2.9919,2.9444,2.9505,2.9514,2.9588,2.9609,2.966,2.9682,2.971,2.9735,2.9798,2.9835,2.985,2.9879,2.9925,2.9965,2.9971,2.9987,3.0001,3.0005,2.9934,2.9925,2.9916,2.9901,3.0005,3.0005,3.0076,3.0077,3.0078]},{"header":{"parameterUnit":"m.s-1","parameterCategory":1,"la1":30.2991,"la2":30.254,"lo1":-89.0895,"lo2":-89.0444,"dy":0.0017,"dx":0.0017,"nx":28,"ny":28,"refTime":"2024-07-08T09:00:00:Z","depth":0,"parameterNumber":3,"parameterNumberName":"V-component_of_WINDS"},"data":[0,0,0,0,0,0,0,0,0,0,0,0,0,0,0,0,0,0,0,0,0,0,0,0,0,0,0,0,0,0,0,0,0,0,0,0,0,0,0,0,0,0,0,0,0,0,0,0,0,0,0,0,0,0,0,0,0,0,6.6055,6.6056,0,6.62,6.6201,6.6203,6.615,6.6146,6.6143,6.614,6.6283,6.6289,6.6296,0,0,0,0,0,0,0,0,0,0,0,0,0,6.5725,6.5731,6.6055,6.6056,6.6058,6.6199,6.6201,6.6203,6.615,6.6146,6.6142,6.6139,6.628,6.6288,6.6297,0,0,0,0,0,0,0,0,0,0,0,0,0,6.5869,6.5733,6.6054,6.6049,6.605,6.6199,6.6201,6.6204,6.6151,6.6146,6.6141,6.6137,6.6278,6.6288,6.6298,6.6459,0,0,6.6329,6.6333,0,0,0,0,0,0,0,0,6.586,6.5881,6.6048,6.605,6.6051,6.6152,6.6137,6.6289,6.6152,6.6113,6.614,6.6134,6.6243,6.6255,6.6293,6.6465,6.6472,6.633,6.6336,6.6341,6.6343,0,0,0,0,0,0,0,6.5851,6.5874,6.6112,6.605,6.6052,6.6037,6.6052,6.6166,6.6203,6.6116,6.6112,6.613,6.6242,6.6283,6.6296,6.6474,6.633,6.6339,6.6345,6.6349,6.6782,6.6787,0,0,0,0,0,0,6.5841,6.5866,6.6107,6.6116,6.5942,6.6047,6.6064,6.6124,6.6202,6.6209,6.6134,6.6127,6.6268,6.6284,6.6301,6.6493,6.634,6.635,6.6356,6.6777,6.6783,6.6789,0,0,0,0,0,0,6.5834,6.5863,6.6101,6.599,6.6019,6.6058,6.6126,6.613,6.6171,6.6216,6.6222,6.617,6.6265,6.6286,6.642,6.6497,6.6355,6.6364,6.6771,6.6779,6.6786,6.6879,0,0,0,0,0,0,6.5825,6.5861,6.5924,6.5992,6.6026,6.622,6.6131,6.6136,6.6189,6.6181,6.6251,6.6257,6.6263,6.6405,6.643,6.6509,6.6372,6.6764,6.6774,6.6784,6.6869,6.6889,6.6907,0,0,0,0,0,6.5813,6.5944,6.5928,6.5957,6.6106,6.6225,6.6244,6.6249,6.6196,6.6258,6.6287,6.6255,6.6485,6.6419,6.6447,6.653,6.6759,6.6771,6.6783,6.6861,6.6885,6.6906,0,0,0,0,0,0,6.5883,6.5953,6.5936,6.6093,6.6154,6.6216,6.6295,6.6275,6.6351,6.634,6.6341,6.6357,6.6494,6.6525,6.6451,6.6688,6.6613,6.6632,6.6663,6.6687,6.6705,6.6694,6.6381,0,0,0,0,0,6.5917,6.6009,6.6065,6.6198,6.6229,6.6257,6.6309,6.6308,6.637,6.6395,6.6433,6.6493,6.6578,6.6634,6.6715,6.6873,6.6886,6.6944,6.6962,6.6978,6.6993,6.7076,6.7102,6.6829,6.6829,6.6828,0,0,6.5987,6.6037,6.6095,6.6213,6.626,6.6353,6.6279,6.6382,6.645,6.641,6.6538,6.6568,6.6634,6.678,6.6847,6.681,6.7071,6.6993,6.7005,6.7012,6.7091,6.7117,6.714,6.6837,6.6835,6.6834,0,0,6.6163,6.6211,6.6327,6.6375,6.6447,6.6465,6.6492,6.6558,6.6576,6.6706,6.6676,6.6756,6.6904,6.6952,6.6995,6.7187,6.716,6.7214,6.731,6.7392,6.7413,6.7432,6.7499,6.7523,6.7229,6.7229,6.7229,0,6.6241,6.6383,6.6388,6.6493,6.6544,6.6513,6.6628,6.6674,6.6768,6.6803,6.6762,6.6945,6.6988,6.7143,6.719,6.7227,6.7256,6.7206,6.741,6.7429,6.7447,6.7511,6.7536,6.7235,6.7234,6.7234,6.7233,0,6.6474,6.6573,6.6657,6.675,6.6811,6.6921,6.6939,6.7,6.6993,6.7014,6.7144,6.7193,6.7283,6.732,6.7314,6.7474,6.7449,6.7409,6.7334,6.7479,6.7539,6.7563,6.7244,6.7241,6.724,6.7238,0,0,6.6699,6.6793,6.6824,6.6865,6.6941,6.7016,6.7122,6.7212,6.7263,6.7328,6.7416,6.754,6.7503,6.7553,6.7551,6.7623,6.7769,6.7573,6.7575,6.7607,6.7946,6.7975,6.8004,6.7752,6.7756,6.776,6.794,0,6.688,6.707,6.7076,6.7248,6.7338,6.7308,6.7401,6.7456,6.7478,6.7555,6.7578,6.7666,6.7611,6.764,6.771,6.7737,6.7837,6.7724,6.7831,6.7835,6.7815,6.8035,6.8067,6.8235,6.7964,6.7968,6.7971,0,6.7118,6.7192,6.7373,6.7435,6.7472,6.7556,6.7637,6.7712,6.7773,6.7783,6.7838,6.7825,6.7931,6.7853,6.7997,6.792,6.7963,6.7983,6.7989,6.7999,6.7911,6.8049,6.8289,6.8314,6.8008,6.8005,6.8002,0,6.7262,6.7406,6.7533,6.7569,6.7645,6.7704,6.7737,6.7794,6.7846,6.7916,6.7949,6.803,6.8074,6.8136,6.8144,6.8087,6.8288,6.8211,6.8298,6.8298,6.8341,6.8338,6.859,6.8371,6.8371,6.8371,6.837,0,6.7463,6.7575,6.7599,6.7677,6.78,6.7804,6.7925,6.7954,6.8004,6.8085,6.8064,6.814,6.8147,6.8224,6.8231,6.8348,6.8368,6.8378,6.8378,6.8379,6.8378,6.8408,6.8396,6.8377,6.8376,6.8374,6.8373,0,6.7645,6.7666,6.7802,6.7862,6.7879,6.7968,6.8018,6.8091,6.811,6.8212,6.8236,6.8266,6.8355,6.837,6.8475,6.8479,6.8619,6.8608,6.8599,6.8597,6.8683,6.8674,6.8962,6.8999,6.8757,6.8759,6.8761,0,6.7772,6.7857,6.7926,6.798,6.8017,6.8103,6.8157,6.8163,6.8219,6.8294,6.8358,6.8445,6.8516,6.866,6.8689,6.8769,6.8758,6.8853,6.877,6.8768,6.8758,6.8753,6.876,6.8869,6.8872,6.8874,6.8876,0,6.7994,6.7999,6.8079,6.8161,6.8226,6.8291,6.8352,6.8396,6.841,6.8474,6.8566,6.8621,6.8728,6.8814,6.8893,6.8925,6.8902,6.8902,6.8926,6.8928,6.8919,6.8923,6.8642,6.8895,6.8893,6.8892,6.8891,6.889,6.8151,6.8225,6.8285,6.8373,6.842,6.8477,6.8548,6.8576,6.8654,6.8743,6.8741,6.8842,6.8897,6.9001,6.9038,6.9115,6.9084,6.9119,6.9128,6.9136,6.9144,6.8907,6.9129,6.9129,6.9128,6.9128,6.9127,0,6.8371,6.8408,6.8489,6.8575,6.8644,6.8618,6.8684,6.8742,6.8832,6.8887,6.8956,6.9061,6.9144,6.918,6.9261,6.9315,6.9307,6.9336,6.9332,6.9339,6.9168,6.9138,6.9342,6.9342,6.9342,6.9341,6.9341,6.9341,6.8494,6.8616,6.8629,6.8773,6.8809,6.8909,6.8948,6.8999,6.9043,6.9162,6.9231,6.9254,6.93,6.9384,6.9459,6.9466,6.9497,6.9531,6.9534,6.9373,6.9351,6.9331,6.9303,6.9538,6.9538,6.9699,6.97,6.9701]}]]